Flag for Slovakia Weather past 2 weeks in Piešťany, Slovakia

Now
43 °F

Passing clouds.


Feels Like: 34 °F
Forecast: 40 / 47 °F
Wind: 21 mph from Northwest

Location: Piestany

Current Time: Dec 21, 2014 at 1:14:22 AM

Latest Report: Dec 21, 2014 at 12:30 AM


Visibility: N/A

Pressure: 30.04 "Hg

Humidity: 71%

Dew point: 34 °F

Location of PiešťanyLocation

Historic Weather in Piešťany — Graph

°F

Piešťany temperature yesterday

Maximum temperature yesterday: 50 °F (at 12:00 AM)
Minimum temperature yesterday: 43 °F (at 4:30 AM)
Average temperature yesterday: 45 °F

Past Weeks' High & Low Weather Summary

 TemperatureHumidityPressure
High57 °F (Dec 19, 12:30 PM)100% (Dec 11, 8:00 PM)30.30 "Hg (Dec 11, 8:00 PM)
Low27 °F (Dec 10, 8:00 AM)53% (Dec 20, 12:00 PM)29.86 "Hg (Dec 16, 5:00 PM)
Average40 °F84%30.05 "Hg
* Reported Midnight between Dec 5 and Dec 6 — Midnight between Dec 20 and Dec 21, Piešťany, Weather by CustomWeather, © 2014

Note: Actual official high and low records may vary slightly from our data, if they occured in-between our weather recording intervals... More about our weather records

Advertising

Piešťany weather history for previous 24 hours

 ConditionsComfort  
Time TempWeatherWind HumidityBarometerVisibility
12:00 AM
Dec 21
43 °FPassing clouds.22 mph71%30.04 "HgN/A
11:30 PM
Dec 20
45 °FPassing clouds.23 mph61%30.04 "HgN/A
11:00 PM45 °FLight rain. Mostly cloudy.21 mph61%30.01 "HgN/A
10:30 PM45 °FDrizzle. Mostly cloudy.21 mph66%30.04 "HgN/A
10:00 PM45 °FDrizzle. Mostly cloudy.18 mph61%30.04 "HgN/A
9:30 PM45 °FOvercast.15 mph61%30.04 "HgN/A
9:00 PM45 °FPassing clouds.12 mph57%30.04 "HgN/A
8:30 PM45 °FLight rain. Passing clouds.16 mph57%30.04 "HgN/A
8:00 PM45 °FLight rain. Passing clouds.17 mph57%30.07 "HgN/A
7:30 PM45 °FLight rain. Passing clouds.15 mph57%30.07 "HgN/A
7:00 PM45 °FLight rain. Partly cloudy.18 mph57%30.07 "HgN/A
6:30 PM46 °FClear.21 mph53%30.07 "Hg10 mi
6:00 PM45 °FPassing clouds.6 mph61%30.04 "HgN/A
5:30 PM45 °FClear.7 mph66%30.04 "Hg10 mi
5:00 PM45 °FPassing clouds.8 mph66%30.07 "HgN/A
4:30 PM43 °FClear.7 mph71%30.07 "Hg10 mi
4:00 PM43 °FPassing clouds.6 mph71%30.07 "HgN/A
3:30 PM45 °FPartly sunny.3 mph61%30.09 "HgN/A
3:00 PM45 °FScattered clouds.7 mph66%30.09 "HgN/A
2:30 PM48 °FScattered clouds.8 mph54%30.09 "HgN/A
2:00 PM46 °FScattered clouds.5 mph57%30.09 "HgN/A
1:30 PM46 °FScattered clouds.9 mph57%30.12 "HgN/A
1:00 PM46 °FScattered clouds.10 mph62%30.12 "HgN/A
12:30 PM46 °FPassing clouds.15 mph57%30.12 "HgN/A
12:00 PM46 °FPassing clouds.10 mph53%30.12 "HgN/A
11:30 AM45 °FPassing clouds.14 mph66%30.15 "HgN/A
11:00 AM45 °FPassing clouds.17 mph61%30.15 "HgN/A
10:30 AM45 °FSunny.17 mph66%30.15 "Hg10 mi
10:00 AM45 °FSunny.15 mph71%30.18 "Hg10 mi
9:30 AM45 °FSunny.8 mph71%30.18 "Hg10 mi
9:00 AM43 °FSunny.12 mph71%30.15 "Hg10 mi
8:30 AM43 °FPassing clouds.16 mph71%30.15 "HgN/A
8:00 AM43 °FScattered clouds.14 mph76%30.12 "HgN/A
7:30 AM43 °FPassing clouds.14 mph76%30.12 "HgN/A
7:00 AM45 °FPassing clouds.13 mph81%30.09 "HgN/A
6:30 AM45 °FPassing clouds.14 mph81%30.09 "HgN/A
6:00 AM46 °FPassing clouds.15 mph82%30.07 "HgN/A
5:30 AM46 °FPassing clouds.12 mph82%30.04 "HgN/A
5:00 AM45 °FPassing clouds.9 mph87%30.04 "HgN/A
4:30 AM43 °FPassing clouds.5 mph93%30.04 "HgN/A
4:00 AM45 °FPassing clouds.1 mph87%30.04 "HgN/A
3:30 AM45 °FMostly cloudy.1 mph87%30.01 "HgN/A
3:00 AM45 °FOvercast.3 mph87%30.04 "HgN/A
2:30 AM46 °FLight rain. Overcast.5 mph87%30.01 "HgN/A
2:00 AM46 °FLight rain. Overcast.16 mph87%30.04 "Hg3 mi
1:30 AM50 °FLight rain. Mostly cloudy.8 mph88%29.98 "Hg5 mi
1:00 AM50 °FDrizzle. Mostly cloudy.6 mph88%29.98 "Hg3 mi
Weather by CustomWeather, © 2014

See weather overviewHow to use our weather pages